Location: Brad
(46.1333°N, 22.7833°E)
Time: 04:45:38
(UTC+00:00)

Cosmos 1980 Rocket - Pass Details

Date: 03 February 2023
Orbit: 828 x 850 km, 71.0° (Epoch: 29 March)

Event Time Altitude Azimuth Distance (km) Brightness Sun altitude
Rises 17:00:36 0° 249° (WSW) 3,388 7.0 -14.8°
Reaches altitude 10° 17:03:37 10° 265° (W) 2,462 6.0 -15.4°
Maximum altitude 17:07:53 22° 315° (NW) 1,787 4.3 -16.1°
Drops below altitude 10° 17:12:13 10° 4° (N) 2,481 4.5 -16.8°
Sets 17:15:17 0° 20° (NNE) 3,423 5.1 -17.4°
